FW1198 Weather Reports


Display with metric or nautical units.
time (UTC)temp
F
wind
direction
speed
MPH
gust
MPH
rain 1hr
in
rain 24hr
in
rain mn
in
humidity
%
barometer
mb
20210803144618 59 9 0.0 0.0 0.00 0.00 0.00 86 1018.2
20210803143214 59 266 0.0 3.0 0.00 0.00 0.00 87 1018.2
20210803141618 59 256 0.0 3.0 0.00 0.00 0.00 88 1018.2
20210803140125 59 299 1.0 2.0 0.00 0.00 0.00 88 1018.1
20210803134550 59 19 0.0 2.0 0.00 0.00 0.00 88 1017.9
20210803133224 59 5 0.0 2.0 0.00 0.00 0.00 88 1017.8
20210803131604 59 8 0.0 2.0 0.00 0.00 0.00 89 1017.7
20210803130128 59 26 1.0 2.0 0.00 0.00 0.00 89 1017.7
20210803124559 59 54 0.0 3.0 0.00 0.00 0.00 89 1017.7
20210803123042 59 205 0.0 2.0 0.00 0.00 0.00 89 1017.6
20210803121554 59 24 0.0 1.0 0.00 0.00 0.00 89 1017.6
20210803120131 59 354 0.0 2.0 0.00 0.00 0.00 89 1017.5
20210803114612 59 320 0.0 1.0 0.00 0.00 0.00 89 1017.5
20210803113233 59 62 0.0 2.0 0.00 0.00 0.00 89 1017.4
20210803111603 59 166 0.0 1.0 0.00 0.00 0.00 89 1017.4
20210803110109 59 192 0.0 1.0 0.00 0.00 0.00 89 1017.4
20210803104548 59 5 0.0 3.0 0.00 0.00 0.00 88 1017.4
20210803103045 58 313 0.0 3.0 0.00 0.00 0.00 88 1017.4
20210803101558 58 288 0.0 2.0 0.00 0.00 0.00 88 1017.4
20210803100222 58 288 0.0 2.0 0.00 0.00 0.00 88 1017.5
20210803094545 58 288 0.0 3.0 0.00 0.00 0.00 88 1017.5
20210803093143 58 281 0.0 2.0 0.00 0.00 0.00 87 1017.5
20210803091522 59 356 0.0 2.0 0.00 0.00 0.00 87 1017.5
20210803090025 59 314 0.0 2.0 0.00 0.00 0.00 87 1017.5
20210803084546 59 299 0.0 2.0 0.00 0.00 0.00 86 1017.6
20210803083043 60 3 0.0 3.0 0.00 0.00 0.00 86 1017.6
20210803081540 60 311 0.0 2.0 0.00 0.00 0.00 85 1017.5
20210803080021 60 320 0.0 3.0 0.00 0.00 0.00 84 1017.7
20210803074528 61 356 0.0 2.0 0.00 0.00 0.00 83 1017.7
20210803073008 61 304 0.0 1.0 0.00 0.00 0.00 83 1017.7
20210803071525 61 327 0.0 3.0 0.00 0.00 0.00 82 1017.7
20210803070002 62 325 0.0 3.0 0.00 0.00 0.00 81 1017.8
20210803064501 62 353 0.0 4.0 0.00 0.00 0.00 80 1017.7
20210803063149 63 327 0.0 5.0 0.00 0.00 0.00 79 1017.8
20210803061850 63 343 0.0 3.0 0.00 0.00 0.00 79 1017.8
20210803060248 63 318 1.0 4.0 0.00 0.00 0.00 78 1017.8
20210803054637 63 314 0.0 4.0 0.00 0.00 0.00 77 1017.9
20210803053134 64 303 0.0 3.0 0.00 0.00 0.00 77 1017.9
20210803051632 64 296 1.0 4.0 0.00 0.00 0.00 76 1017.9
20210803050209 64 304 0.0 3.0 0.00 0.00 0.00 75 1017.8
20210803044648 65 321 1.0 5.0 0.00 0.00 0.00 75 1017.7
20210803043219 65 314 2.0 6.0 0.00 0.00 0.00 76 1017.6
20210803041656 66 310 2.0 7.0 0.00 0.00 0.00 75 1017.6
20210803040541 66 294 3.0 7.0 0.00 0.00 0.00 74 1017.3
20210803033133 68 342 3.0 5.0 0.00 0.00 0.00 70 1017.0
20210803031705 69 305 4.0 8.0 0.00 0.00 0.00 68 1016.9
20210803030544 70 316 2.0 7.0 0.00 0.00 0.00 65 1016.9
20210803024634 71 357 4.0 8.0 0.00 0.00 0.00 62 1016.8
20210803023247 73 36 4.0 8.0 0.00 0.00 0.00 57 1016.6
20210803021727 74 5 4.0 9.0 0.00 0.00 0.00 55 1016.6
20210803020204 75 300 3.0 7.0 0.00 0.00 0.00 55 1016.6
20210803014616 75 289 5.0 9.0 0.00 0.00 0.00 55 1016.6
20210803013223 76 352 6.0 12.0 0.00 0.00 0.00 54 1016.7
20210803011832 77 319 6.0 10.0 0.00 0.00 0.00 54 1016.7
20210803010317 77 15 5.0 10.0 0.00 0.00 0.00 54 1016.6
20210803004633 77 319 4.0 10.0 0.00 0.00 0.00 54 1016.9
20210803003117 78 355 6.0 9.0 0.00 0.00 0.00 52 1016.8
20210803001645 78 14 4.0 6.0 0.00 0.00 0.00 52 1017.0
20210803000117 78 313 4.0 8.0 0.00 0.00 0.00 53 1017.0
20210802234741 77 289 5.0 9.0 0.00 0.00 0.00 54 1017.1
20210802233115 77 327 4.0 8.0 0.00 0.00 0.00 55 1017.2
20210802231647 77 325 5.0 9.0 0.00 0.00 0.00 53 1017.4
20210802230050 77 359 5.0 10.0 0.00 0.00 0.00 54 1017.5
20210802224614 77 299 5.0 10.0 0.00 0.00 0.00 54 1017.6
20210802223053 77 352 5.0 11.0 0.00 0.00 0.00 54 1017.6
20210802221553 77 288 6.0 12.0 0.00 0.00 0.00 53 1017.7
20210802220104 78 330 7.0 14.0 0.00 0.00 0.00 53 1017.8
20210802214650 78 338 5.0 13.0 0.00 0.00 0.00 53 1017.8
20210802213152 78 37 5.0 13.0 0.00 0.00 0.00 53 1017.9
20210802211617 78 302 6.0 16.0 0.00 0.00 0.00 53 1018.0
20210802210118 78 355 6.0 11.0 0.00 0.00 0.00 52 1018.1
20210802204549 79 318 5.0 10.0 0.00 0.00 0.00 51 1018.2
20210802203055 79 6 4.0 10.0 0.00 0.00 0.00 50 1018.3
20210802201539 78 355 1.0 7.0 0.00 0.00 0.00 52 1018.5
20210802200020 78 35 6.0 11.0 0.00 0.00 0.00 52 1018.7
20210802194546 77 38 5.0 8.0 0.00 0.00 0.00 53 1018.8
20210802193100 76 292 2.0 9.0 0.00 0.00 0.00 54 1018.9
20210802191513 75 33 2.0 8.0 0.00 0.00 0.00 54 1019.1
20210802190017 74 286 3.0 6.0 0.00 0.00 0.00 55 1019.1
20210802184507 73 295 1.0 8.0 0.00 0.00 0.00 58 1019.3
20210802183005 72 316 3.0 7.0 0.00 0.00 0.00 58 1019.4
20210802181502 72 2 3.0 8.0 0.00 0.00 0.00 59 1019.4
20210802180144 71 136 0.0 3.0 0.00 0.00 0.00 61 1019.5
20210802174701 70 62 1.0 4.0 0.00 0.00 0.00 63 1019.6
20210802173238 68 262 0.0 6.0 0.00 0.00 0.00 67 1019.6
20210802171639 67 41 4.0 8.0 0.00 0.00 0.00 69 1019.5
20210802170131 67 291 2.0 5.0 0.00 0.00 0.00 69 1019.7
20210802164634 66 290 0.0 4.0 0.00 0.00 0.00 73 1019.8
20210802163137 65 247 0.0 5.0 0.00 0.00 0.00 74 1019.8
20210802161627 64 289 0.0 4.0 0.00 0.00 0.00 75 1020.0
20210802160114 64 290 0.0 3.0 0.00 0.00 0.00 76 1020.0
20210802154615 62 282 0.0 3.0 0.00 0.00 0.00 78 1020.1
20210802153126 61 304 0.0 3.0 0.00 0.00 0.00 80 1020.1
20210802151549 59 93 0.0 1.0 0.00 0.00 0.00 83 1020.1
20210802150103 58 100 0.0 1.0 0.00 0.00 0.00 85 1020.1